Fort Myers - Cape Coral Weather Center

Moon Phase Calendar



Online Cameras

 


      

Current Conditions in Burnt Store Marina
5/25/2024 9:57:40 AM

86°F
Feels Like 95
Clouds
Humidity
68%
Pressure
29.94"
Wind
6.9 mph (SW)
Dew Point
75°F
UV Index
4/10 (Moderate)
Visibility
6 mi

Hourly Forecast

Date & Time Sat, May 25
9:00 AM
Sat, May 25
10:00 AM
Sat, May 25
11:00 AM
Sat, May 25
12:00 PM
Sat, May 25
1:00 PM
Sat, May 25
2:00 PM
Sat, May 25
3:00 PM
Sat, May 25
4:00 PM
Sat, May 25
5:00 PM
Sat, May 25
6:00 PM
Sat, May 25
7:00 PM
Sat, May 25
8:00 PM
Sat, May 25
9:00 PM
Sat, May 25
10:00 PM
Sat, May 25
11:00 PM
Sun, May 26
12:00 AM
Sun, May 26
1:00 AM
Sun, May 26
2:00 AM
Sun, May 26
3:00 AM
Sun, May 26
4:00 AM
Sun, May 26
5:00 AM
Sun, May 26
6:00 AM
Sun, May 26
7:00 AM
Sun, May 26
8:00 AM
Sun, May 26
9:00 AM
Sun, May 26
10:00 AM
Sun, May 26
11:00 AM
Sun, May 26
12:00 PM
Sun, May 26
1:00 PM
Sun, May 26
2:00 PM
Sun, May 26
3:00 PM
Sun, May 26
4:00 PM
Sun, May 26
5:00 PM
Sun, May 26
6:00 PM
Sun, May 26
7:00 PM
Sun, May 26
8:00 PM
Sun, May 26
9:00 PM
Sun, May 26
10:00 PM
Sun, May 26
11:00 PM
Mon, May 27
12:00 AM
Mon, May 27
1:00 AM
Mon, May 27
2:00 AM
Mon, May 27
3:00 AM
Mon, May 27
4:00 AM
Mon, May 27
5:00 AM
Mon, May 27
6:00 AM
Mon, May 27
7:00 AM
Mon, May 27
8:00 AM
Condition
Clouds

Clouds

Clouds

Clouds

Clouds

Clouds

Clear

Clear

Clear

Clear

Clear

Clear

Clear

Clear

Clear

Clear

Clear

Clear

Clear

Clear

Clear

Clear

Clear

Clear

Clear

Clear

Clouds

Clear

Clear

Clear

Clear

Clear

Clear

Clear

Clear

Clear

Clear

Clear

Clear

Clear

Clear

Clear

Clear

Clear

Clear

Clear

Clear

Clear
Temperature 86°F86°F87°F88°F89°F89°F89°F89°F88°F86°F85°F82°F80°F79°F78°F76°F76°F75°F73°F73°F73°F73°F73°F78°F82°F85°F87°F89°F89°F89°F89°F88°F87°F86°F84°F82°F80°F79°F78°F77°F76°F75°F75°F74°F73°F73°F74°F78°F
Feels Like 93°F95°F95°F95°F95°F94°F94°F93°F92°F90°F88°F85°F83°F79°F78°F77°F77°F75°F74°F73°F73°F73°F74°F78°F83°F86°F88°F90°F91°F91°F91°F91°F90°F89°F88°F85°F80°F79°F79°F78°F77°F76°F75°F75°F74°F74°F75°F79°F
Cloudiness 19%19%18%15%14%11%0%0%0%0%0%0%0%0%0%0%0%0%0%0%0%0%1%5%1%3%11%8%7%6%0%0%0%0%0%0%5%2%2%2%1%1%0%0%0%0%0%0%
Visibility 6 mi6 mi6 mi6 mi6 mi6 mi6 mi6 mi6 mi6 mi6 mi6 mi6 mi6 mi6 mi6 mi6 mi6 mi6 mi6 mi6 mi6 mi6 mi6 mi6 mi6 mi6 mi6 mi6 mi6 mi6 mi6 mi6 mi6 mi6 mi6 mi6 mi6 mi6 mi6 mi6 mi6 mi6 mi6 mi6 mi6 mi6 mi6 mi
Precipitation 0%0%0%0%0%0%0%0%0%0%0%0%0%0%0%0%0%0%0%0%0%0%0%0%0%0%0%0%0%0%0%0%0%0%0%0%0%0%0%0%0%0%0%0%0%0%0%0%
Humidity 66%68%65%61%57%53%51%51%53%55%57%62%67%71%72%73%74%74%76%77%76%75%74%64%54%47%44%44%45%45%47%49%52%55%58%64%70%72%74%76%77%79%79%81%82%83%83%73%
Dew Point 73°F75°F74°F72°F71°F70°F68°F68°F68°F68°F68°F68°F68°F68°F68°F67°F67°F66°F65°F65°F65°F65°F65°F64°F63°F62°F63°F64°F65°F65°F66°F66°F67°F68°F68°F69°F69°F69°F69°F68°F68°F68°F68°F68°F67°F67°F68°F69°F
Pressure 29.94"29.94"29.94"29.94"29.94"29.94"29.91"29.91"29.91"29.91"29.91"29.91"29.94"29.94"29.94"29.94"29.94"29.91"29.91"29.91"29.91"29.94"29.94"29.97"29.97"29.97"29.97"29.97"29.97"29.94"29.94"29.91"29.91"29.91"29.91"29.94"29.94"29.97"29.97"29.97"29.97"29.94"29.94"29.94"29.94"29.97"29.97"30"
Wind Speed 5.8 mph6.9 mph8.8 mph11.6 mph12.9 mph14.8 mph15.7 mph15.3 mph15.4 mph15.4 mph14.7 mph13.3 mph11.2 mph8.9 mph7.2 mph5.4 mph5.2 mph5.9 mph6 mph5 mph4.6 mph6 mph4 mph3.9 mph2 mph4 mph7.6 mph11.4 mph12.5 mph12.2 mph12.6 mph12.2 mph12.7 mph13.6 mph13.6 mph11.9 mph8.5 mph6.8 mph4.2 mph4.8 mph4.4 mph2.9 mph3.2 mph2.8 mph0.8 mph1.4 mph2.5 mph3.3 mph
Wind
Direction
248°
WSW
235°
SW
233°
SW
239°
WSW
244°
WSW
254°
WSW
255°
WSW
262°
W
271°
W
279°
W
292°
WNW
300°
WNW
304°
NW
322°
NW
327°
NNW
333°
NNW
342°
NNW

N
10°
N
351°
N
333°
NNW
330°
NNW
328°
NNW
323°
NW
302°
WNW
243°
WSW
230°
SW
231°
SW
235°
SW
237°
WSW
242°
WSW
245°
WSW
248°
WSW
255°
WSW
263°
W
272°
W
280°
W
288°
WNW
315°
NW
346°
NNW
343°
NNW
337°
NNW
328°
NNW
333°
NNW
315°
NW
146°
SE
135°
SE
154°
SSE

Daily Forecast

Date High Low Precip. Humidity
Today
May 25

Clouds
89 °F
78 °F
80%
57%
Sunday
May 26

Clear
89 °F
73 °F
0%
45%
Monday
May 27

Clear
91 °F
73 °F
0%
42%
Tuesday
May 28

Clouds
90 °F
74 °F
0%
50%
Wednesday
May 29

Clear
91 °F
76 °F
0%
44%
Thursday
May 30

Clear
90 °F
77 °F
0%
47%
Friday
May 31

Clear
90 °F
72 °F
0%
49%
Saturday
Jun 1

Rain
94 °F
71 °F
40%
35%
Sunday
Jun 2

Clouds
94 °F
72 °F
19%
31%
Monday
Jun 3

Clouds
85 °F
68 °F
0%
44%
Tuesday
Jun 4

Clear
91 °F
66 °F
0%
32%
Wednesday
Jun 5

Clear
89 °F
68 °F
0%
38%
Thursday
Jun 6

Clear
90 °F
70 °F
0%
46%
Friday
Jun 7

Clear
90 °F
74 °F
0%
38%
Saturday
Jun 8

Clear
89 °F
74 °F
0%
38%
Sunday
Jun 9

Clouds
88 °F
80 °F
15%
49%

Temperature 8-14 Day Outlook



Precipitation 8-14 Day Outlook






About Us
Contact Us
Site Map
Search Site
Advertise With Us
   
FortMyers.USGulf.info
THE FORT MYERS - CAPE CORAL WEBSITE

Copyright 2024, Coastal Town
Privacy    |    Legal